This is the latest recevied weather packets stored in our database for station/object SV2JU-2. If no packets are shown the sender has not sent any weather packets the latest 10 day(s).
| Time | Temp. | Humidity | Pressure | Rain* | Wind** | Luminosity | Snow |
|---|---|---|---|---|---|---|---|
| 1788158239 | 29.44° C | 30% | 1017 hPa | 0 mm | - | - | - |
| 1788157488 | 27.78° C | 33% | 1017 hPa | 0 mm | - | - | - |
| 1788156739 | 27.22° C | 36% | 1017 hPa | 0 mm | - | - | - |
| 1788155988 | 26.11° C | 39% | 1017 hPa | 0 mm | - | - | - |
| 1788155239 | 25.56° C | 40% | 1017 hPa | 0 mm | - | - | - |
| 1788154488 | 25° C | 38% | 1017 hPa | 0 mm | - | - | - |
| 1788153739 | 25° C | 38% | 1017 hPa | 0 mm | - | - | - |
| 1788152988 | 24.44° C | 36% | 1017 hPa | 0 mm | - | - | - |
| 1788152239 | 23.89° C | 33% | 1016 hPa | 0 mm | - | - | - |
| 1788151488 | 23.89° C | 34% | 1016 hPa | 0 mm | - | - | - |
| 1788150738 | 23.89° C | 33% | 1016 hPa | 0 mm | - | - | - |
| 1788150128 | 23.89° C | 32% | 1016 hPa | 0 mm | - | - | - |
| 1788149378 | 23.89° C | 32% | 1016 hPa | 0 mm | - | - | - |
| 1788148628 | 23.89° C | 34% | 1016 hPa | 0 mm | - | - | - |
| 1788147878 | 23.89° C | 38% | 1016 hPa | 0 mm | - | - | - |
| 1788147129 | 23.89° C | 39% | 1016 hPa | 0 mm | - | - | - |
| 1788146378 | 23.89° C | 38% | 1016 hPa | 0 mm | - | - | - |
| 1788145629 | 23.89° C | 38% | 1016 hPa | 0 mm | - | - | - |
| 1788144877 | 23.89° C | 38% | 1016 hPa | 0 mm | - | - | - |
| 1788144128 | 23.89° C | 38% | 1016 hPa | 0 mm | - | - | - |
| 1788143377 | 23.89° C | 37% | 1016 hPa | 0 mm | - | - | - |
| 1788142628 | 23.89° C | 37% | 1016 hPa | 0 mm | - | - | - |
| 1788141877 | 23.89° C | 37% | 1016 hPa | 0 mm | - | - | - |
| 1788141128 | 23.89° C | 37% | 1016 hPa | 0 mm | - | - | - |
| 1788140377 | 23.89° C | 38% | 1016 hPa | 0 mm | - | - | - |
* Rain latest hour (hover to see other rain measurements)
** Current wind speed in m/s (hover to see current wind gust speed)